{"data":{"norad_id":37388,"intl_designator":"2011-015B","name":"YOUTHSAT","alt_names":[],"object_type":"PAYLOAD","status":"ACTIVE","operator":null,"country":"IND","launch_date":"2011-04-20","launch_site_code":"SRILR","launch_vehicle":null,"mission":null,"orbit_class":"UNKNOWN","rcs_meters":0.688,"size_class":null,"mass_kg":null,"dimensions":null,"purposes":[],"wikipedia_slug":null,"has_3d_model":false,"image_url":null,"decayed_at":null,"tle_current":{"epoch":"2026-05-25T04:42:28.719072Z","epoch_age_seconds":55552,"freshness":"FRESH","line1":"1 37388U 11015B   26145.19616573  .00000173  00000+0  90390-4 0  9998","line2":"2 37388  98.3671 120.2891 0015520  52.4292 318.6513 14.25619113784363","mean_motion":14.25619113,"eccentricity":0.001552,"inclination_deg":98.3671,"raan_deg":120.2891,"arg_perigee_deg":52.4292,"mean_anomaly_deg":318.6513,"bstar":9.039e-5,"rev_number":78436,"period_min":101.00874678719,"perigee_km":795.26142692637,"apogee_km":817.56226654664,"semimajor_km":7184.5488467365,"source":"CELESTRAK","updated_at":"2026-05-25T13:37:55.232306Z"}}}